Location: Daouli
(14.8671°N, 3.2030°W)
Time: 01:49:31
(UTC+00:00)

Atlas Centaur 2 - Pass Details

Date: 29 October 2020
Orbit: 459 x 1309 km, 30.4° (Epoch: 02 December)

Event Time Altitude Azimuth Distance (km) Brightness Sun altitude
Rises 18:58:32 0° 295° (WNW) 4,145 6.7 -18.2°
Reaches altitude 10° 19:01:57 10° 307° (NW) 3,253 5.8 -19.0°
Maximum altitude 19:08:44 27° 1° (N) 2,302 4.3 -20.6°
Enters shadow 19:12:19 20° 36° (NE) 2,610 4.3 -21.5°
